TIME,DELAY(SENSOR),PRES,OXYGEN,RAWTEMP,T(OPTODE),TCPHASE,FLUOR,BETA(BETA700),BETA(BETA412),BETA(BETA440),CDOM,C(CSC),ED(ED412.20),ED(ED444.00),ED(ED489.60),ED(ED554.30),LU(LU412.10),LU(LU443.90),LU(LU489.70),LU(LU554.70),COMP,TILTX,TILTY,CHECK
1358563992,5812,888.5300292968750000,35.7502517700195300,560.6693725585938000,4.4651489257812500,56.1724395751953100,55,98,100,78,82,15540,0,0,0,0,2147125705,2147771995,2147573129,2147571309,1060,2,13,21476
1358567588,5813,960.6900024414062000,42.5411491394043000,568.1990966796875000,4.2315120697021480,55.2233390808105500,55,98,100,78,82,15538,0,0,0,0,2147123501,2147773376,2147574235,2147571181,3507,2,13,32975
1358571188,5807,973.3099975585938000,41.9988098144531250,568.2150878906250000,4.2310118675231930,55.2974205017089840,55,100,100,77,82,15541,0,0,0,0,2147122998,2147769965,2147573814,2147570102,264,2,13,40155
1358574788,5807,974.8200073242188000,42.2483406066894500,568.1110839843750000,4.2342448234558105,55.2609710693359400,55,99,101,79,82,15537,0,0,0,0,2147121673,2147767680,2147573997,2147569252,118,2,13,26770
1358578388,5811,978.2999877929688000,42.3613014221191400,569.1574707031250000,4.2017397880554200,55.2551116943359400,55,97,100,78,82,15536,0,0,0,0,2147123328,2147772361,2147577737,2147568722,12,2,13,1428
1358581988,5810,985.3699951171875000,42.2059402465820300,568.8353881835938000,4.2117462158203125,55.2753410339355500,54,97,101,78,82,15538,0,0,0,0,2147122331,2147768950,2147572370,2147569563,3213,2,13,62533
1358585588,5808,987.1400146484375000,42.2659416198730500,569.2520141601562000,4.1988029479980470,55.2745590209960940,55,102,101,78,83,15536,0,0,0,0,2147123465,2147777353,2147571556,2147566235,127,2,13,65308
1358589188,5810,989.9500122070312000,41.9046096801757800,568.7661132812500000,4.2139000892639160,55.3171501159668000,55,99,99,77,81,15538,0,0,0,0,2147122267,2147781421,2147576484,2147568109,3428,2,13,41945
1358592788,5807,990.8200073242188000,41.8917999267578100,568.9498901367188000,4.2081890106201170,55.3217811584472660,55,102,101,77,82,15536,0,0,0,0,2147123172,2147770130,2147574427,2147567478,3590,2,13,23964
1358596388,5809,986.5100097656250000,41.9274406433105500,569.0053710937500000,4.2064628601074220,55.3188285827636700,54,99,100,79,82,15533,0,0,0,0,2147124370,2147770093,2147571474,2147568804,144,2,13,16840
1358599988,5810,987.9299926757812000,41.7861785888671900,569.4799804687500000,4.1917190551757810,55.3427391052246100,55,99,99,78,81,15535,0,0,0,0,2147125275,2147775497,2147571492,2147569965,219,2,13,44796
1358603588,5808,986.5200195312500000,41.8956794738769500,569.2578735351562000,4.1986198425292970,55.3251113891601560,55,97,99,78,81,15533,0,0,0,0,2147122166,2147770368,2147572589,2147567798,117,2,13,4958
1358607188,5810,985.7000122070312000,41.9597206115722660,570.0726928710938000,4.1733021736145020,55.3253097534179700,54,96,101,78,82,15535,0,0,0,0,2147120320,2147772882,2147574610,2147571940,243,3,13,28437
1358610788,5813,979.4500122070312000,41.9040794372558600,570.7786254882812000,4.1513609886169430,55.3388404846191400,55,97,101,78,83,15533,0,0,0,0,2147118656,2147765485,2147572297,2147568009,64,3,13,42513
1358614388,5810,977.4299926757812000,42.3096199035644500,571.3264770507812000,4.1343312263488770,55.2893905639648440,55,98,101,78,81,15536,0,0,0,0,2147123373,2147772342,2147568704,2147570761,3374,3,13,42943
1358617988,5808,980.6300048828125000,42.5204391479492200,571.5540771484375000,4.1272540092468260,55.2613105773925800,54,98,100,79,81,15531,0,0,0,0,2147118482,2147766720,2147573659,2147567899,288,2,13,6807
1358621588,5811,982.5800170898438000,42.5539093017578100,571.2733154296875000,4.1359882354736330,55.2490806579589840,55,99,99,78,82,15532,0,0,0,0,2147124105,2147767853,2147575058,2147566134,51,3,13,9191
1358625188,5809,982.3099975585938000,42.3829612731933600,571.1746215820312000,4.1390528678894040,55.2726402282714840,55,97,99,78,82,15521,0,0,0,0,2147121289,2147773028,2147575753,2147565906,127,2,13,34516
1358628788,5809,981.0200195312500000,42.4442901611328100,571.4730224609375000,4.1297779083251950,55.2713699340820300,55,98,100,78,81,15528,0,0,0,0,2147122715,2147776164,2147576274,2147565641,67,3,13,34900
1358632388,5813,979.3400268554688000,43.1192703247070300,571.7387084960938000,4.1215171813964840,55.1736793518066400,54,99,101,77,82,15530,0,0,0,0,2147124617,2147776969,2147572461,2147566390,320,2,13,61251
1358635988,5808,980.3300170898438000,43.1082191467285160,572.0740966796875000,4.1110901832580570,55.1775817871093750,55,98,99,79,83,15530,0,0,0,0,2147125440,2147771565,2147574765,2147567890,3502,2,13,44986
1358639588,5807,974.5900268554688000,42.9941291809082000,572.7894897460938000,4.0888438224792480,55.2057113647460940,54,99,100,79,82,15529,0,0,0,0,2147121984,2147773184,2147573577,2147567707,390,3,13,32054
1358643188,5809,983.7399902343750000,43.6123504638671900,572.9868774414062000,4.0827031135559080,55.1198501586914060,55,101,101,79,82,15530,0,0,0,0,2147124150,2147775917,2147573302,2147565970,170,3,13,21199
1358646788,5808,983.2500000000000000,43.0927200317382800,571.8629150390625000,4.1176571846008300,55.1780090332031250,54,100,100,78,82,15527,0,0,0,0,2147124918,2147774171,2147574747,2147569517,371,3,13,11680
1358650388,5810,989.1500244140625000,42.6337699890136700,570.8132934570312000,4.1502861976623535,55.2322998046875000,55,99,100,78,81,15527,0,0,0,0,2147121920,2147771648,2147572928,2147568768,7,3,13,5083
1358653988,5810,988.1400146484375000,42.0520782470703100,570.2518920898438000,4.1677341461181640,55.3135490417480500,56,99,100,78,83,15523,0,0,0,0,2147119104,2147768539,2147576256,2147566061,3,3,13,63568
1358657588,5809,990.5599975585938000,41.7282104492187500,570.2548217773438000,4.1676449775695800,55.3654289245605500,55,98,99,78,83,15525,0,0,0,0,2147122633,2147776676,2147575652,2147568521,157,2,13,4021
1358661188,5811,998.8300170898438000,42.0453300476074200,570.0897216796875000,4.1727728843688965,55.3124694824218750,55,99,100,77,81,15525,0,0,0,0,2147122249,2147774299,2147574793,2147568530,566,3,13,30481
1358664788,5810,999.2600097656250000,41.5765419006347660,569.0961914062500000,4.2036437988281250,55.3714714050293000,55,100,100,78,81,15522,0,0,0,0,2147124800,2147772644,2147572854,2147568192,328,2,13,44657
1358668388,5808,998.6599731445312000,41.1293106079101560,569.3002929687500000,4.1973018646240230,55.4385414123535160,55,97,100,78,82,15521,0,0,0,0,2147123026,2147764324,2147574098,2147568941,3531,2,13,475
1358671988,5809,995.9000244140625000,41.3073692321777340,569.1679077148438000,4.2014160156250000,55.4150810241699200,54,98,102,78,82,15520,0,0,0,0,2147121929,2147772032,2147569024,2147567862,153,3,13,46834
1358675588,5809,990.5499877929688000,41.5937805175781250,569.8679199218750000,4.1796669960021970,55.3790206909179700,55,99,100,78,83,15520,0,0,0,0,2147120740,2147770112,2147575917,2147567561,214,2,13,52315
1358679188,5810,986.8200073242188000,41.5496406555175800,570.9613037109375000,4.1456851959228520,55.3933906555175800,55,100,100,78,82,15518,0,0,0,0,2147121316,2147772928,2147575469,2147566793,613,3,13,58850
1358682788,5809,987.9899902343750000,42.2027282714843750,571.1791992187500000,4.1389098167419430,55.3059082031250000,55,101,101,77,83,15522,0,0,0,0,2147124352,2147774939,2147571026,2147568923,143,3,13,30798
1358686388,5810,987.9500122070312000,42.4183006286621100,570.8187866210938000,4.1501121520996090,55.2651710510253900,55,98,101,78,82,15520,0,0,0,0,2147123949,2147774235,2147573833,2147568996,557,2,13,45926
1358689988,5810,989.2000122070312000,42.7969703674316400,571.3364257812500000,4.1340260505676270,55.2210197448730500,54,98,100,78,82,15520,0,0,0,0,2147121243,2147773961,2147574107,2147569152,48,3,13,14990
1358693588,5814,987.7800292968750000,42.1060485839843750,571.0092773437500000,4.1441941261291500,55.3138504028320300,54,97,100,77,82,15519,0,0,0,0,2147122797,2147775561,2147572187,2147569334,93,3,13,26128
1358697188,5810,982.6699829101562000,42.1956291198730500,571.9609985351562000,4.1146049499511720,55.3116912841796900,54,99,100,77,82,15522,0,0,0,0,2147123273,2147776384,2147579008,2147567232,222,3,13,2493
1358700788,5812,982.3400268554688000,43.7344703674316400,573.0283813476562000,4.0814127922058105,55.1049880981445300,55,98,99,77,80,15519,0,0,0,0,2147124498,2147775424,2147573522,2147568457,208,3,13,3404
1358704388,5810,989.0599975585938000,44.2317008972168000,573.2714233398438000,4.0738558769226070,55.0387992858886700,55,98,100,78,82,15520,0,0,0,0,2147125522,2147774893,2147578240,2147569773,3431,2,13,51807
1358707988,5810,985.4699707031250000,43.9298286437988300,572.8980712890625000,4.0854659080505370,55.0781707763671900,55,98,100,78,81,15515,0,0,0,0,2147123620,2147775716,2147576082,2147567844,100,3,13,34914
1358709355,5808,989.6400146484375000,43.8129615783691400,573.0914916992188000,4.0794510841369630,55.0920486450195300,55,101,101,79,82,15518,0,0,0,0,2147124480,2147771748,2147574564,2147565952,262,2,13,31462
